CDT,Max TemperatureF,Mean TemperatureF,Min TemperatureF,Max Dew PointF,MeanDew PointF,Min DewpointF,Max Humidity, Mean Humidity, Min Humidity, Max Sea Level PressureIn, Mean Sea Level PressureIn, Min Sea Level PressureIn, Max VisibilityMiles, Mean VisibilityMiles, Min VisibilityMiles, Max Wind SpeedMPH, Mean Wind SpeedMPH, Max Gust SpeedMPH,PrecipitationIn, CloudCover, Events, WindDirDegrees
2013-3-1,28,18,0,12,6,-6,79,59,39,30.44,30.40,30.33,10,10,10,9,3,,0.00,3,,68
2013-3-2,26,10,-6,10,2,-11,84,61,39,30.40,30.30,30.14,10,10,8,10,3,,0.00,4,,171
2013-3-3,32,24,17,9,6,1,65,45,31,30.12,30.03,29.96,10,10,10,20,9,22,0.00,6,,127
2013-3-4,26,22,19,20,17,0,93,81,32,30.06,29.94,29.88,10,3,0,18,12,28,0.10,8,Fog-Snow,117
2013-3-5,27,23,19,20,18,15,93,83,69,30.39,30.14,29.97,10,4,1,12,7,,0.08,8,Snow,24
2013-3-6,24,14,3,14,11,0,88,76,60,30.46,30.40,30.33,10,10,6,9,4,,0.00,4,Snow,347
2013-3-7,30,13,-4,16,8,-8,91,72,53,30.41,30.34,30.27,10,9,2,16,6,,0.00,0,,131
2013-3-8,34,26,19,24,19,10,85,74,64,30.30,30.23,30.09,10,7,4,10,6,,0.01,6,Rain,148
2013-3-9,33,30,28,31,29,25,100,93,86,30.06,29.85,29.71,5,2,0,16,6,,0.73,8,Fog-Rain-Snow,57
2013-3-10,27,20,12,24,16,7,89,78,61,30.14,30.05,29.90,10,9,5,17,12,24,0.00,5,,353
2013-3-11,28,14,3,14,8,0,92,77,55,30.06,29.90,29.78,10,10,10,13,6,,0.00,4,,331
2013-3-12,25,16,6,12,9,3,88,75,51,30.28,30.02,29.84,10,8,2,20,10,28,0.00,5,Snow,320
2013-3-13,28,11,-6,14,3,-11,92,76,49,30.41,30.32,30.21,10,9,1,9,4,,0.00,1,,237
2013-3-14,36,28,19,27,21,14,93,85,70,30.19,30.09,30.02,10,6,0,10,6,,0.16,5,Fog-Snow,163
2013-3-15,28,21,14,23,17,8,93,81,60,30.06,29.98,29.89,10,4,0,13,8,21,0.19,8,Fog-Snow,27
2013-3-16,12,2,-9,7,-2,-12,87,72,58,30.35,30.18,30.07,10,8,0,18,10,,0.00,2,Snow,312
2013-3-17,19,0,-20,15,-1,-26,88,72,52,30.36,30.05,29.68,10,8,0,23,8,29,0.02,5,Fog-Snow,136
2013-3-18,28,17,6,27,13,1,100,84,73,29.88,29.58,29.36,4,2,0,29,18,38,0.16,8,Fog-Snow,253
2013-3-19,14,5,-4,2,-4,-9,82,66,53,30.27,30.14,29.93,10,10,7,24,15,30,0.00,0,,304
2013-3-20,17,6,-5,2,-5,-11,76,64,45,30.30,30.25,30.19,10,10,6,24,14,33,0.00,0,Snow,311
2013-3-21,28,6,-15,9,-3,-21,91,69,41,30.21,30.13,30.04,10,8,1,7,3,,0.00,0,,328
2013-3-22,32,10,-11,13,1,-17,87,68,41,30.16,30.13,30.09,10,10,8,7,3,,0.00,0,,288
2013-3-23,35,20,6,21,12,2,83,70,48,30.20,30.17,30.13,10,10,10,12,3,,0.00,4,,285
2013-3-24,32,28,25,20,17,15,72,65,54,30.17,30.13,30.10,10,10,9,13,8,,0.00,7,,5
2013-3-25,34,25,17,17,14,12,84,61,46,30.32,30.24,30.18,10,10,10,15,11,,0.00,4,,345
2013-3-26,37,18,0,19,8,-5,87,71,36,30.37,30.33,30.30,10,10,10,8,4,,0.00,0,,284
2013-3-27,37,19,1,20,11,-4,87,66,38,30.38,30.36,30.34,10,10,9,7,1,,0.00,0,,220
2013-3-28,43,26,10,21,17,6,84,63,37,30.35,30.31,30.23,10,10,10,12,3,,0.00,3,,150
2013-3-29,46,34,21,33,26,18,86,69,52,30.28,30.18,30.01,10,9,5,8,4,,0.00,4,,149
2013-3-30,45,38,30,37,33,26,100,88,56,29.99,29.90,29.87,10,4,0,14,3,,0.21,5,Fog-Rain,316
2013-3-31,32,25,16,29,18,9,93,72,51,30.19,29.93,29.75,10,9,4,24,13,32,0.00,6,Snow,317